CAPE
2500 2527 2288 2441 2349 2388 2507 2418 2371 2435 2840 2790 2740 2795 2754 2563 2704 2735 2658 2510 2121 1980 1584 1338 1433 1591 1522 1437 1128 1060 1609 1995 1910 1774 1529 2038 2592 2706 2422 2370 2313 2323 2166 2235 2329 2312 2398 2202 2073 2057 1944 1972 2000 1959 1935 1988 1866 1845 1992 1894 1895 1881 1890 1869 1873 1819 1888 1890 1884 1782 1412 1498 1527 1513 1392 1333 1354 1484 1628 1676 1518 1699 1502 1608 1442
2408 2341 2252 2332 2559 2358 2488 2563 2421 2407 2953 2665 2845 2781 2791 2212 2499 2568 2465 2135 2023 2029 1853 1406 1403 1260 1288 1321 1005 1033 1474 2007 1871 1554 1482 1971 2430 2946 2678 2450 2336 2193 2194 2221 2158 2232 2142 2068 2061 2093 2027 2062 2063 1985 2030 1992 1943 2007 2017 1914 1899 1874 1818 1889 1881 1883 1873 1863 1920 1926 1588 1580 1651 1494 1403 1366 1443 1636 1752 1689 1672 1786 1745 1716 1702
2228 2274 2306 2181 2475 2630 2277 2521 2562 2488 2737 2736 2602 2547 2436 1842 2313 2018 1787 1652 1709 1773 1684 1352 1443 1246 1281 1117 772 959 1310 1990 1993 1467 1549 1867 2223 2602 2765 2600 2377 2165 2140 2168 2201 2173 2171 2018 1948 2119 2106 2098 2079 2054 2021 2010 2002 1971 2009 2048 1943 1933 1845 1871 1847 1718 1750 1735 1791 1842 1663 1723 1784 1678 1697 1724 1776 1820 1866 1779 1719 1640 1689 1674 1687
2020 2159 2351 2205 2288 2469 2371 2313 2370 2264 2135 1952 2253 2727 2106 2038 2113 2020 1686 1554 1338 1344 1522 1154 1377 1359 1225 954 724 826 1163 1783 1974 1554 1556 1938 2198 2389 2466 2524 2475 2249 2175 2218 2211 2262 2129 2090 2040 2074 1980 1960 1926 1926 1941 1888 1968 1941 1910 1963 2029 2014 1706 1906 1834 1860 1837 1765 1803 1803 1640 1772 1838 1820 1824 1918 1896 1790 1862 1776 1611 1658 1792 1732 1703
1969 2430 2996 2390 2462 2530 2254 1857 1760 2078 2009 1991 2286 2793 2483 2399 2520 2678 2071 2048 2109 1693 1630 1162 1218 1255 1230 1013 765 738 963 1210 1574 1605 1532 1945 2249 2270 2125 2433 2225 2296 2253 2211 2216 2232 2263 2125 2083 2037 2000 2070 2011 1964 1966 2011 1925 1940 1754 1999 2063 2004 2006 1972 1984 1904 1896 1901 1812 1819 1778 1856 1868 1788 1839 1917 1896 1859 1878 1814 1822 1834 1870 1852 1825
2314 2469 2618 2628 2620 2660 2590 3092 2546 2323 2662 2386 2237 2127 1978 2082 2256 2696 2927 2624 2134 2040 1785 1589 1099 1033 1159 1036 774 701 904 1057 1178 1356 1415 2018 2312 2080 1836 2044 2126 2095 2304 2189 2182 2293 2347 2270 2152 2190 2109 2000 1975 2052 1987 2006 1986 1894 1846 1821 1951 2029 1965 2046 2048 1970 1901 1972 1996 1972 1926 2026 2058 2062 1957 1947 1969 1971 1922 1970 1939 1866 1742 1950 1931
2621 2429 2479 2512 2425 2380 2363 2472 2789 3388 3027 2379 1987 2082 2187 2176 2648 2486 2000 1656 1698 1131 1516 1727 1313 888 1074 978 741 663 1006 1108 1103 1274 1658 2143 2307 2044 1842 1943 2004 2134 2261 2166 2395 2262 2301 2275 2272 2151 2098 2184 2099 2109 2057 2010 2075 2010 1932 1949 1793 1847 1940 1954 1923 1932 1938 2027 2030 1999 2013 2066 2137 2019 1919 1870 1682 1608 1646 1488 1723 1925 1677 1407 1569
2679 2436 2578 2499 2791 2604 2226 2050 2895 2874 2623 3111 2293 2149 2617 2478 2747 2419 492 16 666 4 89 1018 1275 947 992 815 762 1027 1046 1210 1232 1579 1900 2117 2196 2105 2002 1980 2022 2090 2560 2038 1970 2342 2288 2142 2172 1874 2089 1857 1864 1888 2160 2108 2154 1987 1971 1927 1888 1929 1788 1789 1775 1688 1794 1628 1752 1741 1806 1766 1684 1870 1974 1639 1597 1460 1562 1615 1648 1455 1630 1585 1648
2701 2767 2675 2709 2766 2745 2798 2541 3111 3011 2859 2972 2636 2969 2577 2640 1842 2981 208 0 0 0 0 0 182 757 930 872 810 1051 1136 1278 1433 1818 1963 2030 2038 2117 2084 2066 2226 2782 2439 2039 1977 2008 2275 2232 2144 2217 2130 1921 2060 1871 1859 1563 1782 1860 1751 1796 1672 1873 1652 1826 1801 1835 1740 1648 1791 1594 1589 1782 1565 1765 1863 1831 1578 1558 1456 1326 1423 1512 1576 1628 1404
2696 2473 2696 2711 2532 2551 2484 2873 3256 2716 2808 2564 2454 2182 2155 2346 1642 1003 1034 0 0 0 0 4 1 0 406 874 860 1058 1214 1298 1626 2407 2006 1988 1928 2017 2106 2108 2240 2411 2236 1981 1976 1947 2033 2077 2142 2299 2231 2149 2031 2072 2045 1852 1835 1860 1722 1814 1775 1681 1756 1680 1780 1925 1957 1915 1769 1797 1644 1518 1511 1446 1455 1692 1558 1394 1594 1363 1448 1546 1570 1393 1468
2612 2555 2861 2997 2434 2254 2144 2733 2875 3040 2880 2425 2076 1889 2023 1889 1516 82 450 67 0 0 0 13 36 64 109 519 929 1054 1222 1384 2117 1955 2018 1908 1812 1948 2033 2080 2134 2086 2057 1971 1958 1980 2003 1935 1991 2020 1984 2188 2126 2126 2128 1983 1750 1859 1938 1775 1802 1664 1695 1686 1764 1657 1723 1807 1810 1742 1706 1659 1675 1640 1594 1458 1444 1746 1738 1672 1522 1626 1444 1403 1622
2514 2607 2762 3000 2591 2228 1822 2929 3138 3003 2720 2551 2276 2272 2053 2323 2325 64 21 796 25 0 24 125 31 20 321 571 902 1036 1232 1815 1808 1880 1936 1878 1842 2083 1975 2015 2048 1938 1918 1960 2016 1966 1975 1978 2302 2016 2008 2116 2069 2005 2040 1930 2014 1791 1928 1945 1589 1671 1818 1782 1419 1572 1633 1625 1617 1780 1787 1781 1690 1700 1638 1685 1705 1688 1691 1665 1609 1604 1672 1587 1559
2455 2544 2404 3240 2576 2132 1946 2812 3015 2979 2600 2555 2250 2343 2667 2674 1537 2406 347 75 38 0 11 0 0 0 0 73 745 1016 1793 1667 1646 1693 1790 1797 1842 1936 1835 1853 1908 1837 1878 1948 2018 1975 1913 1905 1977 1997 2000 1982 2092 2101 1949 1945 1963 1870 1683 1877 1780 1726 1778 1766 1556 1689 1808 1562 1608 1536 1480 1402 1460 1452 1424 1483 1474 1463 1516 1519 1485 1579 1583 1477 1350
2453 2628 2287 2716 2720 2495 2192 2553 2767 3006 2492 2400 2069 2425 3017 2968 1752 899 1359 133 1 12 0 0 0 0 0 3 87 710 1582 1400 1404 1460 1632 1682 1889 1769 1652 1648 1708 1718 1715 1946 1996 2067 1954 1728 1837 1920 1923 1916 1960 1846 1838 1876 1949 1891 1785 1774 1910 1726 1691 1619 1751 1712 1652 1532 1564 1451 1482 1312 1299 1445 1552 1366 1310 1299 1347 1348 1166 1403 1413 1374 1396
2473 2509 2532 2443 2576 2724 2568 2420 2656 2928 2680 2388 2065 1987 2212 2371 1303 618 230 104 850 0 0 0 21 100 66 0 0 0 529 929 1176 1390 1514 1756 1871 1752 1638 1608 1552 1501 1515 1838 2010 2070 1820 1664 1668 1701 1700 1739 1791 1788 1741 2200 1924 1832 1758 1679 1731 1879 1500 1574 1616 1570 1395 1370 1481 1503 1384 1455 1395 1203 1291 1179 1204 1302 1398 1389 1410 1433 1469 1199 1086
2466 2373 2594 2516 2467 2408 2500 2404 2617 2983 2697 2513 1912 1784 2018 2143 1201 888 19 0 0 0 17 1 106 0 0 0 0 0 0 14 655 1181 1494 1667 1778 1633 1633 1567 1478 1455 1439 1648 1870 1989 1781 1639 1604 1474 1664 1710 1562 1727 1716 1704 1837 1832 1726 1705 1608 1671 1436 1548 1413 1312 1167 1269 1270 1160 1150 971 1080 942 858 742 1010 1017 1040 1236 1197 1200 1135 941 884
2490 2440 2432 2447 2436 2326 2170 2487 2824 2846 2685 2416 2078 1747 1862 2072 1430 1131 12 0 0 0 3 472 219 38 44 23 0 0 0 0 66 629 1249 1499 1533 1462 1574 1467 1455 1507 1499 1555 1692 1755 1750 1693 1608 1472 1515 1454 1437 1667 1696 1666 1861 2038 1679 1834 1673 1838 1433 1157 1297 783 835 1080 1010 948 920 809 785 658 415 531 540 659 683 780 641 477 522 491 429
2475 2529 2567 2352 2391 2327 2257 2443 2905 2816 2647 2513 2358 2139 2000 1921 1545 1186 562 71 0 0 92 1231 945 1755 74 5 0 0 2 0 0 27 829 1017 1259 1326 1340 1342 1307 1463 1454 1484 1575 1636 1678 1677 1516 1446 1326 1229 1365 1549 1481 1427 1528 1464 1411 1620 1566 1432 1254 802 388 266 436 376 494 369 316 259 262 437 429 379 442 375 322 288 209 179 198 79 65
2502 2458 2572 2488 2400 2360 2329 2586 2538 2826 2909 2592 2556 2319 2000 1782 1564 1468 946 441 0 0 109 410 784 662 970 666 731 714 0 0 0 0 115 551 766 899 866 993 1054 1267 1262 1272 1488 1471 1472 1478 1461 1329 1299 1242 1280 1281 1216 1228 1555 1180 1608 1592 1310 1056 750 416 310 311 360 310 276 314 290 315 394 409 289 176 110 155 91 216 264 153 36 1 5
2389 2507 2437 2531 2480 2492 2434 2596 2807 2822 3045 2668 2442 2430 2142 1810 1623 1440 1091 332 0 0 0 27 7 45 504 558 1659 610 184 14 0 0 0 1 0 510 86 509 710 981 986 1090 1172 1132 1224 1390 1390 1289 1280 1187 1033 1060 1034 965 1227 1296 1500 1384 1148 888 537 279 120 100 212 352 349 243 269 354 344 252 182 185 127 103 117 112 198 147 87 6 6
2264 2415 2456 2448 2639 2529 2598 2694 2923 2911 3288 2790 2549 2355 2253 1894 1690 1475 916 37 0 0 0 0 0 0 220 119 95 8 132 514 633 22 0 0 0 124 0 0 0 621 732 806 889 968 1092 1187 1142 1271 1300 1169 1034 1039 784 786 992 1037 1313 1408 1060 721 493 262 195 63 80 176 222 299 245 159 118 207 254 172 82 67 61 83 66 56 71 25 5
2323 2302 2397 2394 2546 2642 2640 2748 2914 2915 3179 2845 2788 2356 2209 1905 1748 1468 1074 1 9 0 0 0 0 0 0 0 82 112 0 0 31 17 1 0 0 0 0 0 0 0 420 637 550 650 799 762 842 1210 1160 1089 960 876 420 556 826 792 991 1552 1116 724 540 371 341 239 242 147 130 67 165 216 106 71 82 63 56 21 31 28 0 0 10 3 0
2307 2329 2335 2378 2475 2659 2693 2760 2886 2996 3176 2929 2895 2683 2336 2111 1776 1556 926 150 4 1 411 92 6 455 13 0 1 0 0 0 0 6 2 0 0 14 3 0 0 0 0 0 0 14 274 13 165 822 832 788 681 473 147 222 612 587 793 1598 1329 955 813 671 572 500 471 424 246 192 184 108 81 115 33 9 22 28 10 3 7 67 139 151 168
2242 2380 2369 2363 2457 2671 2713 2795 2902 2964 3134 3020 2904 2825 2478 2239 1906 1706 1443 962 101 100 23 78 320 703 220 0 0 0 0 0 0 0 4 0 2 0 0 134 0 0 0 0 0 0 0 0 22 441 210 8 3 40 82 122 223 597 903 1444 1279 773 876 898 913 769 615 439 347 326 320 180 105 67 50 20 9 8 29 80 114 164 185 180 170
2066 2256 2401 2381 2435 2676 2706 2771 2874 2968 3123 3085 2952 2843 2703 2425 1952 1705 1194 846 667 718 0 1 261 237 16 0 0 2 2 0 0 0 2 0 0 1 26 14 24 0 0 0 0 0 0 0 0 20 381 0 0 3 3 12 1 430 950 712 953 552 545 793 833 658 615 455 346 500 459 473 516 246 141 24 4 12 47 77 98 128 172 197 202
2002 2039 2253 2383 2433 2642 2706 2765 2834 2908 3071 3177 3069 2892 2843 2697 2190 1794 1110 964 1008 1003 0 0 41 197 13 0 0 2 2 2 3 4 36 150 85 10 17 8 8 0 0 0 0 0 0 0 0 0 0 0 0 0 0 0 0 223 804 5 243 256 291 392 509 441 399 505 290 373 529 584 594 459 329 229 154 116 156 178 210 232 232 228 232
2042 1993 2089 2338 2425 2623 2722 2763 2834 2893 2993 3153 3137 2976 2862 2741 2415 1949 1460 1326 1312 1189 510 39 3 164 329 19 4 0 0 7 0 22 0 1 46 10 0 39 4 0 4 4 0 0 0 0 0 0 0 0 0 0 0 0 0 51 616 78 0 116 130 103 214 192 139 187 296 297 361 492 571 584 578 653 535 561 532 497 390 397 370 347 513
2046 2032 2014 2268 2328 2596 2711 2757 2835 2904 2996 3080 3121 3070 2913 2753 2586 2301 2189 1994 1632 1406 1006 92 81 3 439 636 667 372 0 0 10 1 0 0 0 0 0 0 2 19 0 1 0 0 0 0 0 0 0 0 0 0 0 0 0 54 481 3 0 0 66 50 44 42 46 30 72 170 266 371 395 467 611 670 750 790 742 622 622 706 760 819 840
2022 2052 2023 2214 2277 2467 2677 2730 2825 2926 3019 3107 3118 3118 2994 2918 2759 2510 2336 2171 1899 1721 1338 931 36 3 9 575 756 763 280 112 64 48 0 0 0 0 0 0 0 0 17 0 0 0 0 0 0 0 0 0 0 0 1 0 0 31 40 70 0 0 0 32 4 1 1 7 0 20 89 170 193 221 234 334 489 642 718 657 636 715 862 899 930
2039 2092 2030 2129 2279 2702 2603 2685 2763 2943 3014 3099 3176 3163 3090 2929 2780 2577 2432 2317 2192 2050 1816 1384 894 13 14 1 234 726 768 724 751 917 855 491 0 0 0 0 0 0 0 0 0 0 0 0 0 0 0 0 0 0 3 22 70 220 2 172 0 0 0 2 6 0 2 9 6 0 7 44 90 120 97 53 60 130 261 428 622 738 832 791 835
2125 2168 2141 2111 2213 2410 2541 2665 2693 2883 3018 3058 3151 3203 3139 2962 2815 2684 2548 2444 2350 2219 2040 1736 1256 947 354 23 2 45 492 592 707 777 897 856 780 48 4 0 0 0 0 0 5 0 0 12 1 0 0 0 0 0 38 46 142 369 162 195 32 0 0 0 0 0 0 0 0 0 0 0 0 4 18 13 5 6 28 106 279 413 547 594 686
2205 2273 2259 2200 2167 2278 2532 2660 2702 2762 2966 3060 3105 3143 3111 2965 2937 2867 2773 2641 2515 2355 2156 1930 1634 1295 928 554 44 13 31 185 367 698 779 839 895 804 285 55 0 0 0 4 6 44 1 7 12 1 0 1 10 46 58 118 139 649 318 198 67 68 0 0 0 0 0 0 0 0 0 0 0 0 0 2 13 29 90 77 73 117 176 248 410
2200 2381 2390 2317 2249 2224 2424 2617 2709 2735 2845 2988 3043 3086 3071 3024 2942 2894 2852 2758 2623 2453 2244 2031 1773 1591 1354 1028 670 99 36 109 175 355 677 752 821 827 749 257 44 6 0 1 49 34 8 153 554 674 414 40 146 136 131 142 175 497 710 165 70 33 18 7 0 0 0 0 0 0 0 0 0 0 0 0 2 36 119 178 76 26 21 11 11
2091 2376 2505 2434 2372 2323 2368 2539 2671 2752 2806 2875 2962 3018 3031 2982 2938 2896 2854 2762 2666 2518 2320 2121 1874 1707 1622 1441 1184 902 612 166 168 192 642 777 795 815 805 704 72 86 9 52 5 50 48 8 283 607 559 225 218 170 204 150 173 440 773 569 170 50 33 58 95 128 168 12 0 0 0 0 0 0 0 0 0 4 23 41 44 11 0 0 0
1855 2184 2423 2560 2486 2428 2415 2464 2579 2672 2738 2793 2872 2934 2970 2991 2962 2905 2842 2779 2702 2570 2394 2238 2029 1826 1718 1626 1523 1337 1152 964 508 319 250 552 832 842 801 769 714 343 97 30 19 12 16 21 21 214 490 578 365 174 137 125 190 363 601 574 486 259 222 108 124 128 188 104 0 0 0 0 0 0 0 0 0 0 0 0 0 0 0 0 0
1736 2002 2172 2267 2440 2466 2424 2468 2522 2587 2665 2736 2794 2870 2896 2924 2973 2969 2933 2866 2776 2620 2449 2310 2150 1944 1818 1741 1674 1542 1415 1327 1159 857 565 538 556 737 860 806 764 765 629 455 389 16 8 25 9 191 245 532 546 132 146 237 162 202 472 522 462 260 338 316 187 146 157 66 3 0 0 0 0 0 0 0 0 0 0 0 0 0 0 0 0
1986 1965 2117 2198 2217 2298 2318 2352 2506 2568 2620 2729 2802 2871 2916 2899 2911 2942 2966 2945 2870 2770 2611 2432 2233 2027 1876 1769 1674 1614 1546 1492 1439 1273 993 690 650 622 592 656 743 761 787 690 552 456 427 205 59 58 331 533 579 553 403 326 257 344 396 458 456 233 259 327 330 255 221 71 6 0 0 0 0 90 281 265 0 0 0 0 0 0 0 0 0
2317 2177 2099 2192 2281 2308 2320 2296 2359 2546 2630 2711 2833 2913 2973 2978 2937 2925 2946 2960 2944 2882 2796 2626 2389 2186 2009 1862 1769 1672 1596 1529 1498 1431 1297 1072 771 704 666 604 589 653 744 802 735 656 561 472 353 81 45 439 540 597 589 537 479 476 524 575 588 548 458 254 292 352 368 378 305 62 4 292 247 56 297 0 0 0 0 0 0 0 0 0 0
2410 2370 2270 2151 2244 2405 2462 2433 2367 2416 2604 2726 2835 2934 3012 3081 3087 3050 3012 2986 2970 2942 2905 2825 2642 2427 2251 2087 1937 1788 1662 1578 1502 1443 1386 1315 1141 926 750 696 626 609 659 744 802 799 732 662 563 425 94 94 328 517 525 574 577 568 554 526 551 515 469 400 407 393 377 422 438 419 295 246 194 305 312 0 0 0 0 0 0 0 0 0 0
2252 2348 2381 2311 2200 2270 2515 2598 2555 2449 2457 2627 2797 2909 2999 3097 3181 3182 3146 3090 3045 2988 2920 2891 2838 2711 2557 2392 2202 2001 1829 1699 1580 1489 1410 1393 1338 1210 1052 871 785 717 680 687 739 788 782 748 689 581 420 179 146 430 579 582 557 524 446 368 388 400 435 453 434 450 414 426 500 512 454 347 103 178 281 0 0 0 0 0 0 0 0 0 0
1993 2154 2253 2347 2348 2238 2192 2407 2640 2638 2518 2466 2583 2792 2932 3014 3104 3184 3199 3185 3139 3081 2992 2885 2829 2822 2780 2687 2535 2339 2115 1898 1720 1599 1516 1454 1400 1340 1267 1146 996 882 818 736 688 691 734 734 724 701 612 451 435 418 530 604 575 531 437 386 174 140 173 367 523 510 501 516 519 530 463 326 0 0 0 0 0 0 0 0 0 0 0 0 0
1905 1922 2036 2131 2244 2300 2233 2102 2128 2439 2636 2577 2489 2541 2782 2904 2962 3024 3102 3149 3161 3119 3056 2979 2873 2790 2776 2764 2694 2596 2464 2278 2084 1907 1761 1661 1571 1453 1342 1239 1144 1039 956 879 790 710 676 684 682 668 652 579 460 460 476 532 543 518 491 478 456 351 34 100 346 461 528 544 531 482 410 328 227 257 117 0 0 4 0 0 0 0 0 0 0
1948 1843 1873 1960 2037 2144 2232 2201 2070 1956 2227 2648 2724 2608 2560 2706 2806 2872 2921 2990 3055 3094 3064 3040 2977 2886 2786 2737 2729 2708 2668 2595 2474 2329 2167 2011 1881 1759 1649 1529 1405 1254 1110 986 899 799 720 674 666 665 646 601 538 466 470 487 512 541 489 176 127 434 432 377 356 328 349 406 431 385 375 340 337 351 351 349 250 0 0 0 0 0 0 0 0
2025 1897 1779 1820 1926 2013 2081 2142 2150 2068 1957 2032 2524 2801 2771 2655 2634 2657 2747 2806 2875 2957 3012 3025 3006 2939 2846 2770 2747 2741 2741 2715 2664 2591 2503 2419 2302 2156 2000 1850 1719 1608 1494 1344 1169 1025 877 744 673 658 642 632 586 514 472 452 468 476 511 459 364 123 130 262 344 330 361 385 399 374 378 343 309 342 340 334 166 3 28 2 0 0 0 0 0
1926 1944 1906 1780 1743 1846 2016 2099 2132 2176 2152 2041 2036 2383 2766 2860 2807 2728 2658 2692 2736 2806 2897 2956 2975 2954 2889 2815 2752 2733 2757 2764 2750 2697 2620 2573 2540 2474 2346 2235 2086 1948 1804 1663 1546 1419 1254 1112 961 800 655 599 590 583 499 434 409 424 431 458 462 404 278 151 293 296 294 505 419 397 406 394 344 417 408 394 399 397 328 152 89 238 0 0 0
1801 1778 1884 1886 1778 1696 1782 1992 2138 2174 2254 2327 2296 2223 2351 2676 2892 2926 2817 2723 2714 2730 2780 2844 2890 2906 2891 2846 2776 2719 2694 2727 2746 2755 2730 2675 2606 2555 2503 2434 2340 2257 2138 2004 1901 1824 1684 1519 1364 1183 1011 845 753 657 559 465 410 410 372 361 393 405 392 354 316 287 282 687 480 413 424 456 396 433 492 509 477 490 451 374 339 335 16 0 0
1744 1670 1662 1789 1820 1781 1702 1719 1900 2110 2202 2292 2452 2528 2489 2452 2612 2836 2876 2787 2730 2710 2717 2775 2856 2901 2934 2932 2908 2851 2782 2734 2738 2756 2749 2732 2708 2656 2605 2550 2475 2384 2264 2137 2069 1988 1896 1790 1649 1514 1344 1226 1049 932 908 742 714 669 573 446 311 288 326 355 360 360 321 657 546 430 443 454 451 439 492 537 542 530 497 488 487 356 0 0 0
1794 1651 1553 1701 1841 1871 1800 1706 1714 1874 2073 2195 2338 2520 2682 2728 2683 2684 2771 2773 2743 2732 2753 2769 2794 2867 2951 3010 3022 3021 2987 2949 2878 2841 2845 2832 2792 2741 2703 2651 2604 2536 2457 2358 2261 2157 2012 1861 1699 1556 1443 1330 1220 1137 943 897 912 898 803 591 548 438 279 288 340 362 369 549 600 502 392 408 430 433 489 550 600 599 563 535 430 111 0 0 0
1930 1828 1730 1724 1938 2092 2121 2021 1878 1897 2030 2194 2358 2448 2578 2746 2826 2857 2830 2787 2760 2762 2799 2804 2797 2782 2810 2879 2993 3032 3014 3014 3004 2982 2960 2931 2944 2900 2834 2777 2724 2632 2563 2432 2382 2326 2276 2234 2167 2091 2027 1942 1864 1803 1692 1567 1457 1366 1226 1095 996 788 585 388 300 323 370 394 609 526 409 371 389 389 446 478 462 457 417 345 0 0 0 0 0
2076 1947 1877 1798 1855 2142 2326 2402 2339 2213 2183 2313 2516 2646 2677 2728 2818 2848 2863 2853 2825 2821 2829 2824 2823 2800 2769 2764 2774 2855 2924 2956 2953 2952 2875 2866 2870 2878 2830 2818 2816 2706 2630 2452 2434 2372 2357 2344 2304 2271 2144 2122 2223 2178 2144 2035 1934 1813 1644 1546 1370 1114 889 755 558 341 309 362 468 520 389 406 390 351 340 325 292 284 251 238 0 0 0 0 0
2276 2132 2034 1959 1918 2003 2252 2513 2655 2620 2537 2494 2606 2838 2983 3007 2984 2986 2967 2942 2934 2952 2952 2949 2943 2941 2935 2880 2981 3080 3164 3234 3279 3335 3349 3324 3294 3260 3222 3145 3087 3038 2886 2726 2603 2566 2547 2531 2567 2558 2516 2504 2466 2339 2265 2207 2087 1931 1865 1705 1540 1362 1268 1095 938 797 477 290 409 476 373 411 392 414 373 329 311 286 191 127 0 0 0 0 0
Wind_Speed
14 15 13 16 16 15 16 17 16 17 16 18 18 17 17 17 16 15 15 13 12 12 13 14 13 14 14 13 15 16 16 16 15 16 16 16 16 17 18 18 17 16 14 13 13 13 13 14 14 14 15 15 15 15 16 16 15 15 15 14 14 14 14 15 14 13 11 8 7 7 7 7 6 6 5 5 5 4 4 4 3 2 3 3 4
15 15 14 16 16 16 16 16 17 17 16 18 18 17 17 17 16 15 15 14 13 13 11 13 13 13 13 13 14 15 14 15 15 16 17 17 18 18 21 19 19 18 15 14 14 15 15 15 15 15 15 15 16 16 17 17 16 16 16 16 15 15 16 16 16 16 15 12 11 10 9 9 9 10 10 10 9 6 4 4 6 7 7 6 7
15 15 15 16 16 15 16 15 16 16 16 17 17 18 18 18 18 17 16 15 15 13 11 12 12 12 11 12 13 13 14 14 13 14 15 17 18 18 19 21 20 18 16 16 16 16 17 17 16 15 15 15 15 16 16 17 17 17 17 17 17 16 16 16 17 17 17 16 15 15 14 14 15 15 16 15 16 15 14 12 13 12 12 12 13
15 14 15 15 15 16 12 11 14 14 16 16 18 18 19 18 17 16 16 14 15 15 13 11 12 13 10 12 12 13 13 12 11 13 15 16 16 17 18 18 21 20 18 18 18 19 18 18 17 16 16 15 15 16 16 17 18 18 18 18 18 17 17 16 16 17 17 17 17 17 17 17 17 18 19 20 21 22 21 19 18 17 17 17 17
14 15 15 15 15 14 13 13 15 13 15 16 17 18 18 18 17 16 16 16 16 18 14 14 13 13 12 12 12 12 11 11 11 14 15 14 15 15 17 16 16 20 20 19 20 20 21 20 19 19 17 16 16 16 17 17 18 18 19 18 19 19 17 17 17 17 16 16 17 17 17 18 18 19 20 21 22 23 23 22 21 20 19 18 18
13 14 14 13 14 12 11 11 13 14 15 15 17 17 18 17 18 17 18 18 20 20 16 16 15 12 13 11 12 11 11 11 13 14 13 14 14 15 15 14 14 15 16 20 21 21 21 21 21 20 19 18 17 17 17 18 18 18 19 19 19 18 18 17 17 17 17 17 17 17 17 16 17 18 19 20 21 22 22 22 21 20 19 19 18
12 12 13 13 13 12 13 14 14 14 14 16 16 16 17 18 17 18 18 19 20 19 18 17 15 14 15 11 12 12 13 14 14 14 13 14 15 15 15 14 13 14 15 16 19 21 22 21 21 21 22 22 20 18 18 18 19 18 19 18 18 18 17 17 16 16 16 16 17 17 17 17 18 18 19 19 19 17 19 20 19 19 16 17 16
11 11 13 14 13 14 16 16 15 14 15 14 13 14 15 15 17 17 17 nan 15 nan nan 15 13 15 15 12 13 15 14 15 14 15 14 13 15 15 14 14 14 14 16 15 16 17 21 21 21 22 23 22 22 22 20 20 19 18 18 18 17 17 16 16 16 16 16 17 17 18 18 18 17 17 17 16 15 15 17 17 17 17 16 16 16
11 11 12 14 14 14 17 16 15 14 13 13 14 14 13 13 15 15 15 nan nan nan nan nan 13 16 15 14 15 15 15 15 16 16 13 14 15 15 13 13 14 16 14 15 15 15 18 21 21 22 22 22 21 22 22 15 21 17 19 17 17 16 15 15 15 15 16 16 16 16 17 17 16 16 16 16 16 15 15 13 15 16 15 15 15
11 12 12 14 14 14 16 15 14 14 13 14 16 13 12 11 13 14 13 nan nan nan nan nan nan nan 12 12 14 14 13 14 15 14 12 12 13 13 14 13 14 14 14 15 15 15 15 18 21 21 21 21 21 23 22 21 21 19 16 18 17 16 17 15 15 15 15 15 15 15 15 15 15 15 15 14 13 13 13 13 14 13 11 13 12
11 12 12 13 13 14 14 15 14 13 13 14 14 13 12 10 11 nan 10 nan nan nan nan nan nan nan 7 10 11 12 12 12 12 11 11 12 12 13 12 14 13 13 14 14 14 14 16 15 14 14 16 21 21 22 22 22 20 19 18 17 17 16 18 16 14 15 14 14 13 12 12 13 13 13 13 13 13 11 10 9 11 10 11 10 11
10 12 12 13 13 14 14 14 13 12 12 13 14 14 13 11 11 nan nan 8 nan nan nan 6 nan nan 6 9 10 9 10 10 9 10 10 10 11 11 13 13 14 14 14 14 14 14 14 14 13 14 14 17 21 21 21 20 19 19 18 18 18 17 17 15 12 17 15 14 13 13 11 12 13 13 13 11 11 9 9 7 7 8 7 7 7
9 11 13 13 13 12 13 13 12 13 13 16 16 15 13 12 12 11 11 nan nan nan nan nan nan nan nan nan 9 10 9 9 10 9 10 10 11 13 13 12 14 14 14 13 13 13 14 14 14 13 13 13 16 20 20 19 18 19 18 18 19 18 17 15 17 15 13 13 13 11 10 11 10 10 11 10 8 7 6 5 4 4 5 5 6
9 10 12 13 13 11 12 12 12 14 14 14 15 15 13 13 11 11 10 11 nan nan nan nan nan nan nan nan nan 8 10 9 9 10 11 11 13 14 13 13 14 15 14 13 13 13 13 14 13 12 12 13 14 13 14 14 15 17 17 17 18 16 15 14 13 11 11 10 10 8 10 9 9 8 9 6 5 5 5 5 6 7 7 9 11
8 10 11 12 12 11 12 12 13 13 11 13 15 16 14 14 13 14 13 11 11 nan nan nan nan 10 nan nan nan nan 11 11 12 13 13 14 14 15 14 14 16 16 15 13 14 14 14 13 13 12 12 12 12 11 10 11 11 15 15 16 15 14 14 12 12 11 10 10 10 10 9 10 9 9 8 9 8 8 8 9 10 11 12 14 13
9 9 9 11 12 12 10 11 12 12 12 14 15 16 15 14 15 15 nan nan nan nan nan nan 9 nan nan nan nan nan nan nan 15 16 14 15 16 16 14 16 16 15 14 15 16 15 15 13 13 12 11 11 11 10 9 7 12 14 14 14 12 11 13 12 11 11 12 11 11 11 12 12 12 11 12 11 11 12 12 13 13 14 15 15 16
8 9 9 11 11 11 10 10 11 11 11 13 15 17 17 16 16 15 nan nan nan nan nan 10 9 nan nan nan nan nan nan nan nan 14 13 13 17 16 15 16 15 14 15 16 15 14 13 13 13 12 12 12 11 11 11 11 12 11 13 14 13 11 13 12 13 13 13 14 14 14 15 15 15 15 14 15 15 15 15 15 16 16 17 18 18
7 8 9 9 10 11 10 9 10 10 11 12 14 15 16 15 16 17 17 nan nan nan nan 10 11 12 nan nan nan nan nan nan nan nan 12 13 15 16 17 17 15 15 14 14 15 15 13 14 13 13 12 12 12 11 12 14 13 12 12 14 17 15 14 14 15 15 15 15 15 16 16 17 17 17 17 17 18 17 17 17 18 18 18 nan nan
7 8 8 9 9 11 11 10 9 9 10 11 13 15 17 16 14 15 18 15 nan nan 12 11 9 11 11 12 13 13 nan nan nan nan 10 12 15 16 17 16 16 15 15 15 16 15 14 13 14 13 13 12 13 13 13 14 15 15 17 18 18 18 16 17 17 17 17 17 17 17 18 18 18 18 19 19 19 19 nan 19 19 19 nan nan nan
7 7 8 8 9 10 11 10 10 10 10 12 13 14 15 14 15 17 17 17 nan nan nan nan nan nan 10 11 11 10 13 nan nan nan nan nan nan 13 nan 14 15 18 18 17 16 16 14 14 14 14 13 14 15 14 14 14 14 14 16 20 20 20 20 20 19 20 20 20 20 20 20 21 21 21 21 21 21 21 21 21 21 20 nan nan nan
6 7 8 9 9 10 10 10 10 9 9 11 12 13 14 14 12 14 17 nan nan nan nan nan nan nan 7 9 nan nan 11 10 11 nan nan nan nan 13 nan nan nan 16 17 16 16 15 15 16 16 14 13 15 16 15 14 15 15 15 16 23 23 23 23 22 22 nan nan 22 23 23 23 23 23 23 23 23 nan nan nan nan nan nan nan nan nan
7 7 8 9 9 9 9 11 11 9 9 11 11 12 12 12 13 15 15 nan nan nan nan nan nan nan nan nan nan 10 nan nan nan nan nan nan nan nan nan nan nan nan 15 16 16 16 16 16 16 14 14 15 15 15 15 16 16 16 19 25 26 26 26 25 25 26 25 25 25 nan 25 25 25 nan nan nan nan nan nan nan nan nan nan nan nan
7 8 9 10 10 10 10 11 10 9 9 10 12 13 12 12 11 11 13 14 nan nan 11 nan nan 9 nan nan nan nan nan nan nan nan nan nan nan nan nan nan nan nan nan nan nan nan 16 nan 14 14 15 15 14 14 16 17 18 19 24 26 27 27 28 29 29 29 27 27 28 27 27 27 nan 27 nan nan nan nan nan nan nan nan 25 25 25
7 8 10 11 11 12 13 12 12 10 10 10 11 11 12 11 10 10 11 11 11 11 nan nan 11 10 12 nan nan nan nan nan nan nan nan nan nan nan nan 13 nan nan nan nan nan nan nan nan nan 14 15 nan nan nan nan 18 19 26 24 27 28 29 29 30 30 29 29 29 29 29 29 30 30 nan nan nan nan nan nan nan 27 26 26 26 26
9 9 11 13 12 13 14 15 14 13 12 11 11 11 11 11 12 11 10 10 11 11 nan nan 12 11 nan nan nan nan nan nan nan nan nan nan nan nan nan nan nan nan nan nan nan nan nan nan nan nan 16 nan nan nan nan nan nan 24 27 23 29 29 30 31 31 31 31 31 32 31 31 30 29 29 29 nan nan nan nan nan nan 27 27 25 25
8 11 11 11 12 14 14 15 15 14 14 14 13 13 12 13 13 13 12 11 9 10 nan nan nan 11 nan nan nan nan nan nan nan nan nan 10 nan nan nan nan nan nan nan nan nan nan nan nan nan nan nan nan nan nan nan nan nan 26 30 nan 27 30 32 32 33 34 35 35 34 34 33 32 32 31 30 30 29 29 28 28 28 27 26 26 25
8 9 8 9 10 11 13 14 14 15 14 15 15 15 14 14 14 14 13 11 11 11 10 nan nan 10 9 nan nan nan nan nan nan nan nan nan nan nan nan nan nan nan nan nan nan nan nan nan nan nan nan nan nan nan nan nan nan nan 30 nan nan 31 33 35 35 36 36 36 36 35 34 33 33 32 32 31 31 30 30 29 29 29 28 27 27
7 5 7 7 8 9 10 12 12 13 14 15 15 15 15 16 16 15 15 11 12 11 11 nan nan nan 9 8 7 9 nan nan nan nan nan nan nan nan nan nan nan nan nan nan nan nan nan nan nan nan nan nan nan nan nan nan nan nan 30 nan nan nan nan nan nan nan nan nan nan 36 35 35 34 34 33 33 33 32 32 32 31 31 31 31 30
4 4 5 5 6 8 9 10 11 11 12 14 15 15 16 16 17 17 17 15 13 13 11 10 nan nan nan 9 9 8 7 6 nan nan nan nan nan nan nan nan nan nan nan nan nan nan nan nan nan nan nan nan nan nan nan nan nan nan nan nan nan nan nan nan nan nan nan nan nan nan nan 35 35 35 35 35 35 35 35 35 35 35 34 34 33
3 2 3 5 5 7 8 9 10 11 12 13 14 15 16 16 17 17 17 17 15 12 11 10 9 nan nan nan 7 8 7 7 8 8 9 11 nan nan nan nan nan nan nan nan nan nan nan nan nan nan nan nan nan nan nan nan nan 25 nan 23 nan nan nan nan nan nan nan nan nan nan nan nan nan 34 nan nan nan 36 36 37 37 37 37 37 36
2 1 3 5 6 6 8 9 10 11 12 13 14 15 17 16 16 16 16 17 17 16 13 12 10 9 8 nan nan nan 7 8 8 8 9 11 13 nan nan nan nan nan nan nan nan nan nan nan nan nan nan nan nan nan nan nan 19 23 21 21 nan nan nan nan nan nan nan nan nan nan nan nan nan nan nan nan nan nan nan 37 38 38 38 38 38
0 3 5 7 8 9 9 11 12 12 13 13 14 15 16 16 16 16 16 17 17 17 15 13 11 10 10 9 nan nan nan 8 9 10 11 12 14 15 16 nan nan nan nan nan nan nan nan nan nan nan nan nan nan nan nan 16 17 24 19 20 nan nan nan nan nan nan nan nan nan nan nan nan nan nan nan nan nan nan nan nan nan 40 40 40 39
3 5 7 9 10 11 12 13 14 14 14 14 14 15 15 16 16 16 17 18 18 17 17 16 13 12 12 11 10 nan nan 11 11 12 13 14 15 16 17 18 nan nan nan nan nan nan nan 13 13 12 11 nan 14 17 17 17 17 18 20 20 nan nan nan nan nan nan nan nan nan nan nan nan nan nan nan nan nan nan 38 39 nan nan nan nan nan
5 6 8 9 11 12 13 14 14 15 15 15 15 16 16 16 16 16 16 18 18 17 18 18 17 14 13 13 12 11 12 13 13 15 16 17 17 18 18 19 nan nan nan nan nan nan nan nan 10 10 9 13 14 16 20 20 18 18 21 22 22 nan nan nan nan 27 33 nan nan nan nan nan nan nan nan nan nan nan nan nan nan nan nan nan nan
4 6 7 9 10 12 12 13 13 14 15 15 15 16 16 16 16 16 16 18 19 19 20 20 19 16 14 14 14 14 13 14 15 16 17 18 19 19 20 20 20 20 nan nan nan nan nan nan nan 11 13 14 17 16 18 19 22 23 24 24 25 25 26 28 29 29 32 36 nan nan nan nan nan nan nan nan nan nan nan nan nan nan nan nan nan
4 5 6 7 8 9 10 11 12 13 14 15 16 16 16 16 16 16 16 17 18 19 19 20 20 18 16 15 14 16 16 17 17 17 17 18 20 20 20 20 20 20 20 19 18 nan nan nan nan 14 13 15 15 15 16 19 22 24 25 25 26 27 28 29 31 31 33 nan nan nan nan nan nan nan nan nan nan nan nan nan nan nan nan nan nan
4 5 4 6 6 8 8 9 11 12 14 16 17 16 15 15 15 15 15 16 16 16 17 19 21 20 17 15 15 16 17 18 17 18 18 19 20 20 21 20 20 19 18 20 19 18 18 17 nan nan 15 16 17 19 22 22 21 22 23 25 27 29 29 30 31 32 35 nan nan nan nan nan nan nan 46 47 nan nan nan nan nan nan nan nan nan
4 5 6 7 8 9 10 10 11 12 13 14 16 17 17 15 13 12 13 13 14 15 15 17 21 21 17 15 14 15 16 18 18 19 19 20 19 19 20 20 21 20 20 20 20 20 20 20 20 nan nan 21 20 22 25 26 26 26 25 24 25 27 30 30 32 33 34 35 36 nan nan 42 44 nan 48 nan nan nan nan nan nan nan nan nan nan
5 6 7 8 8 10 11 12 12 13 13 14 14 15 15 15 13 11 10 11 12 13 14 17 18 19 17 14 13 14 15 16 17 18 18 18 18 19 19 19 20 21 21 22 24 23 23 22 22 24 nan nan 28 26 28 30 29 31 32 30 28 31 33 34 35 36 36 37 39 43 44 46 47 48 50 nan nan nan nan nan nan nan nan nan nan
6 7 7 8 8 9 11 12 13 13 13 13 13 13 14 14 12 10 10 10 10 11 13 15 16 15 14 13 12 12 14 15 16 17 18 19 18 17 17 18 19 21 21 22 24 25 24 23 24 24 27 28 28 28 31 35 33 31 35 37 35 36 37 37 38 39 39 40 40 40 41 44 45 47 48 nan nan nan nan nan nan nan nan nan nan
5 7 7 7 7 8 9 11 13 13 13 13 13 13 12 12 11 10 10 9 9 10 11 12 12 12 11 11 11 12 14 17 20 20 21 22 20 19 19 21 21 22 21 22 23 25 25 24 23 25 26 27 29 31 32 35 38 37 39 40 36 37 38 38 37 40 42 43 42 42 43 47 nan nan nan nan nan nan nan nan nan nan nan nan nan
7 7 7 7 8 8 9 10 11 12 12 11 13 17 15 11 10 9 9 9 9 8 8 7 7 8 10 10 11 16 17 19 20 22 23 24 26 23 22 23 24 23 23 23 23 24 25 25 24 25 26 26 28 32 32 34 35 35 38 41 39 38 nan 37 35 39 44 46 45 44 44 48 49 47 49 nan nan nan nan nan nan nan nan nan nan
7 7 7 7 8 8 10 11 11 10 10 10 15 15 16 16 11 9 8 8 7 6 6 6 7 8 8 10 10 13 15 15 17 21 23 24 25 26 26 27 28 28 26 25 25 26 27 26 25 26 27 25 26 30 32 33 37 39 39 41 40 42 43 42 39 40 47 51 48 45 43 48 49 47 48 48 49 nan nan nan nan nan nan nan nan
5 5 6 7 7 8 9 10 10 9 8 11 14 15 16 16 14 9 6 5 5 6 6 8 8 7 9 9 10 9 11 14 15 16 19 22 24 25 26 27 29 31 32 31 28 28 29 29 28 29 29 28 26 30 32 35 37 41 41 43 44 45 45 45 43 42 46 55 51 47 42 47 49 47 47 48 49 nan nan nan nan nan nan nan nan
5 5 5 6 6 7 8 9 8 8 7 11 13 14 14 15 14 11 5 5 6 7 7 8 9 9 9 9 9 9 11 17 17 16 17 18 20 23 24 25 27 30 31 32 33 33 33 32 31 30 32 32 30 29 34 37 40 40 42 43 43 43 43 43 42 42 44 53 53 49 44 46 51 48 46 47 50 50 49 52 nan 56 nan nan nan
5 4 3 4 4 6 7 7 6 6 7 8 12 12 12 13 13 11 7 8 8 7 8 9 9 10 11 11 10 10 12 14 16 17 18 19 20 21 21 22 23 24 27 29 31 34 34 34 34 32 31 36 33 30 34 41 43 42 44 44 45 44 43 42 43 43 45 52 54 51 44 44 51 50 46 46 50 49 49 53 56 56 nan nan nan
5 4 3 2 3 5 6 5 3 3 3 8 9 12 12 12 13 11 7 7 6 6 8 9 10 12 13 13 13 13 13 16 18 21 22 22 23 23 24 25 25 26 28 28 30 32 33 33 34 32 30 34 34 32 35 44 44 44 46 46 48 48 45 41 38 42 46 48 51 53 44 44 51 50 45 47 50 48 49 51 56 57 nan nan nan
6 5 3 1 1 2 3 4 3 4 3 7 9 10 11 11 12 6 6 6 7 7 8 9 11 11 13 14 14 14 15 16 19 24 25 26 25 24 24 25 26 27 27 28 31 34 35 35 35 33 32 34 37 37 39 44 44 43 44 44 45 46 48 46 43 46 45 48 50 52 46 44 50 51 47 49 52 49 49 50 53 56 nan nan nan
5 4 2 1 1 0 2 3 3 3 4 3 8 10 11 13 10 6 6 5 5 6 7 9 10 11 12 14 15 15 15 16 19 24 26 29 25 25 25 25 27 28 26 28 34 35 35 35 34 33 31 32 35 37 39 44 46 47 49 48 46 52 51 47 45 46 44 50 47 50 51 45 50 53 51 52 53 51 50 51 nan nan nan nan nan
4 3 4 4 3 2 0 1 1 1 2 1 8 10 13 16 15 10 8 8 8 9 9 10 12 13 15 17 18 18 18 17 21 26 28 33 28 26 27 27 27 27 25 30 39 38 38 37 35 32 31 30 33 35 39 43 47 51 53 49 49 56 52 50 47 48 46 48 48 54 54 47 53 55 55 53 53 49 51 52 nan nan nan nan nan
6 8 9 7 5 4 3 3 1 1 1 4 11 14 17 19 19 14 14 13 13 13 14 14 15 16 18 20 23 23 21 20 23 27 30 35 31 30 31 31 30 29 28 37 41 39 43 44 40 38 35 34 38 41 41 44 48 52 51 48 52 57 55 53 51 53 50 46 50 59 57 53 57 55 60 58 52 48 51 54 nan nan nan nan nan
Wind_Direction
58 54 47 50 49 43 40 43 44 49 51 55 52 49 50 50 50 49 53 54 56 56 61 64 64 65 69 65 65 63 63 64 62 57 58 60 64 55 44 45 46 43 36 30 28 30 33 32 32 31 31 31 35 37 37 38 39 41 43 44 43 40 36 33 34 36 37 37 40 42 34 25 28 27 23 18 1 340 305 314 338 8 19 9 16
56 54 44 50 50 49 48 49 50 48 45 48 51 50 51 54 57 55 53 56 58 62 58 65 68 66 63 61 63 65 68 66 64 59 59 57 60 60 43 47 49 47 43 42 40 41 41 38 36 37 38 35 39 42 43 43 42 42 45 46 46 45 42 41 42 46 50 51 54 58 64 63 67 65 58 50 42 26 34 55 68 64 55 51 49
54 52 48 47 49 50 51 52 51 49 42 42 46 51 54 53 53 55 54 55 61 63 57 62 68 68 65 62 60 60 62 63 64 69 67 61 60 64 57 45 49 50 48 47 48 50 49 47 42 42 43 44 47 49 49 50 49 47 49 50 50 51 50 48 51 53 57 57 58 62 68 73 74 73 70 67 63 62 68 74 80 77 74 69 65
54 52 48 46 46 45 47 54 59 48 43 41 43 48 51 54 57 59 62 59 62 63 62 59 64 65 63 66 63 56 60 60 61 63 65 64 63 69 66 60 49 50 50 51 53 54 53 52 49 48 50 50 53 56 56 55 55 55 56 57 57 55 55 54 57 60 63 62 64 68 71 72 74 73 70 66 67 69 73 78 78 78 77 75 72
53 49 46 44 42 42 37 43 60 52 50 45 43 47 49 51 55 60 62 63 66 68 63 62 59 63 58 64 68 63 65 60 56 59 60 63 61 66 67 65 64 52 52 54 55 55 55 54 52 52 52 53 56 59 61 61 61 63 64 62 62 62 58 59 61 64 65 70 67 68 70 70 70 70 68 68 69 71 75 77 79 78 75 73 72
49 52 47 44 45 49 51 54 58 55 48 47 45 46 50 52 53 49 54 54 58 60 56 54 57 61 63 58 69 69 65 62 60 60 62 64 61 61 61 62 61 66 64 56 56 56 56 54 53 52 53 54 56 61 63 64 64 64 67 66 66 64 62 61 62 64 67 68 70 71 72 73 74 74 73 71 71 73 74 76 77 78 75 73 70
58 50 52 47 49 56 66 65 61 59 47 46 44 47 49 58 61 59 59 52 56 62 52 48 46 51 63 59 61 63 60 61 60 64 61 61 59 59 58 56 55 58 62 64 60 55 56 56 54 52 52 52 54 59 61 65 66 65 67 66 67 66 65 65 64 64 65 65 67 69 70 69 68 69 71 70 75 80 83 82 82 79 81 83 81
68 55 51 55 56 65 71 72 66 57 53 54 56 54 61 66 66 62 66 nan 67 nan nan 48 47 47 59 57 55 59 56 60 61 61 58 54 58 58 56 58 55 52 55 59 60 59 55 55 54 55 53 55 57 60 63 64 65 69 67 65 65 68 67 68 67 68 66 65 66 65 64 66 67 74 72 71 69 68 74 76 78 78 74 73 74
67 59 53 62 65 69 72 69 66 56 57 62 65 68 68 68 71 69 61 nan nan nan nan nan 33 40 47 52 52 56 55 56 57 58 55 52 56 57 59 61 59 52 56 58 59 63 61 58 57 56 57 54 57 62 64 70 81 65 70 73 73 67 73 68 68 66 67 66 68 70 71 68 65 65 68 67 65 66 65 75 77 77 71 70 70
65 59 58 65 69 69 71 67 60 52 54 57 60 68 66 58 62 69 64 nan nan nan nan nan nan nan 44 49 52 57 58 57 59 58 56 57 60 60 58 59 57 58 55 57 60 62 67 66 59 59 59 57 55 58 63 60 66 72 70 70 68 80 69 68 66 66 66 67 66 63 61 62 58 56 61 65 65 57 60 52 59 61 63 64 63
63 59 56 65 69 70 66 66 58 54 52 56 59 63 62 56 57 nan 71 nan nan nan nan nan nan nan 53 58 58 62 63 66 67 64 60 58 59 60 57 54 54 55 53 53 57 61 67 73 74 68 67 60 58 58 59 63 66 68 70 71 73 62 71 70 75 68 65 63 59 57 56 53 49 47 48 46 51 50 49 46 44 43 45 47 45
58 58 57 62 68 70 65 62 57 55 52 53 54 54 56 59 58 nan nan 62 nan nan nan 39 nan nan 60 69 73 68 72 73 72 67 65 60 59 61 58 55 53 54 53 52 52 59 64 70 73 69 67 68 62 61 58 58 61 64 62 65 65 65 65 64 65 71 62 59 59 56 48 49 45 44 48 48 47 45 43 37 34 32 29 24 20
57 55 53 61 68 72 68 63 55 55 49 47 46 50 57 55 57 57 50 nan nan nan nan nan nan nan nan nan 96 88 69 71 62 68 67 62 59 59 62 56 57 59 59 55 55 58 61 64 69 69 68 66 69 65 60 61 59 61 58 58 62 58 61 59 53 57 53 55 54 50 56 56 50 49 48 45 46 43 42 31 23 16 355 342 330
53 52 52 57 68 70 69 60 53 55 52 46 45 51 57 62 58 59 61 47 nan nan nan nan nan nan nan nan nan 99 83 73 71 72 68 69 65 63 62 58 59 62 63 61 64 63 64 64 66 70 71 66 68 72 68 66 67 60 61 61 59 58 56 55 49 38 42 45 44 40 42 41 42 40 36 25 10 13 358 349 341 324 320 317 307
49 46 47 55 63 70 66 57 52 51 46 41 42 50 54 53 49 47 55 53 50 nan nan nan nan 78 nan nan nan nan 85 89 86 75 66 67 69 67 64 60 57 60 63 65 66 66 66 66 68 71 73 72 68 70 69 58 65 59 62 63 57 54 49 40 34 29 30 33 24 26 21 25 23 17 352 354 349 343 340 334 325 319 317 314 312
44 42 45 50 58 63 69 55 52 49 36 35 41 48 52 50 47 46 nan nan nan nan nan nan 53 nan nan nan nan nan nan nan 62 70 67 62 62 64 65 62 57 58 61 62 61 63 65 66 69 69 72 72 71 70 66 67 60 52 52 58 54 53 39 31 22 21 19 14 9 10 9 8 2 358 354 349 343 337 332 327 324 324 322 319 320
39 36 37 45 55 61 65 60 50 47 37 32 37 43 47 45 39 40 nan nan nan nan nan 70 56 nan nan nan nan nan nan nan nan 80 68 67 67 66 64 64 60 54 54 60 64 61 61 64 65 66 65 65 67 66 65 66 62 57 48 42 39 54 34 27 18 17 16 12 11 8 8 5 3 1 358 353 348 344 339 334 333 332 331 330 328
38 32 34 42 51 58 64 59 53 46 38 33 36 43 49 44 40 36 43 nan nan nan nan 76 74 71 nan nan nan nan nan nan nan nan 78 76 72 69 62 62 62 57 55 57 59 61 59 57 60 59 60 59 58 59 58 58 59 48 38 40 29 36 22 18 20 18 16 12 8 7 4 3 2 359 355 352 349 347 343 339 337 335 333 nan nan
37 32 32 40 48 57 61 61 53 45 40 30 32 40 45 43 40 35 38 40 nan nan 40 56 82 86 87 83 72 67 nan nan nan nan 59 84 69 64 64 65 58 57 55 54 54 54 57 56 56 55 57 56 52 50 49 49 44 35 27 30 22 21 14 15 17 14 10 7 4 2 0 358 358 356 354 353 350 348 nan 343 341 340 nan nan nan
32 35 34 41 46 53 59 61 56 47 37 31 30 38 43 46 37 35 36 36 nan nan nan nan nan nan 75 73 70 64 62 nan nan nan nan nan nan 73 nan 71 63 54 49 47 49 50 50 56 54 49 48 50 47 40 39 42 41 34 26 20 16 15 14 14 13 10 7 4 2 1 359 359 359 358 357 355 353 351 351 352 351 350 nan nan nan
45 35 42 44 48 51 54 58 56 48 39 33 35 32 37 40 34 33 34 nan nan nan nan nan nan nan 60 73 nan nan 69 72 64 nan nan nan nan 54 nan nan nan 65 57 50 48 49 47 49 53 46 42 44 43 37 34 35 34 30 28 18 15 15 13 14 11 nan nan 4 2 2 2 1 1 0 0 360 nan nan nan nan nan nan nan nan nan
64 53 47 46 46 49 50 53 54 45 37 33 32 32 37 40 34 33 33 nan nan nan nan nan nan nan nan nan nan 65 nan nan nan nan nan nan nan nan nan nan nan nan 53 49 43 44 42 44 43 41 42 40 40 36 31 29 29 27 27 21 16 13 12 12 11 11 10 9 7 nan 6 6 5 nan nan nan nan nan nan nan nan nan nan nan nan
69 65 53 48 48 47 47 51 54 47 38 31 30 29 29 31 36 33 30 27 nan nan 41 nan nan 39 nan nan nan nan nan nan nan nan nan nan nan nan nan nan nan nan nan nan nan nan 36 nan 32 33 33 34 34 30 28 26 22 23 21 20 15 12 11 12 13 15 15 14 15 13 13 12 nan 10 nan nan nan nan nan nan nan nan 2 358 355
79 67 61 53 51 51 49 46 47 46 38 32 28 26 21 22 23 26 31 31 28 27 nan nan 39 35 43 nan nan nan nan nan nan nan nan nan nan nan nan 39 nan nan nan nan nan nan nan nan nan 22 24 nan nan nan nan 19 19 19 16 17 13 12 13 13 14 16 17 16 15 16 16 14 14 nan nan nan nan nan nan nan 7 6 2 359 357
84 65 59 50 49 49 46 43 43 42 38 32 29 21 14 14 16 19 19 20 22 20 nan nan 34 29 nan nan nan nan nan nan nan nan nan nan nan nan nan nan nan nan nan nan nan nan nan nan nan nan 13 nan nan nan nan nan nan 17 14 13 14 13 13 13 13 14 16 15 15 14 15 14 12 11 12 nan nan nan nan nan nan 4 3 1 357
72 64 56 48 47 43 40 39 36 33 31 30 27 21 13 11 10 11 16 18 12 12 nan nan nan 33 nan nan nan nan nan nan nan nan nan 33 nan nan nan nan nan nan nan nan nan nan nan nan nan nan nan nan nan nan nan nan nan 18 14 nan 14 14 13 13 13 14 15 16 15 14 13 13 13 13 11 11 11 9 8 7 6 4 2 1 1
75 67 58 44 37 35 31 28 27 23 18 19 22 20 15 12 10 10 9 8 7 3 9 nan nan 30 28 nan nan nan nan nan nan nan nan nan nan nan nan nan nan nan nan nan nan nan nan nan nan nan nan nan nan nan nan nan nan nan 15 nan nan 15 15 15 15 16 17 17 17 16 15 14 14 15 14 13 11 11 9 7 5 4 3 2 1
91 72 58 36 25 22 19 18 14 11 7 4 7 11 10 9 10 8 8 4 1 2 4 nan nan nan 17 23 15 31 nan nan nan nan nan nan nan nan nan nan nan nan nan nan nan nan nan nan nan nan nan nan nan nan nan nan nan nan 15 nan nan nan nan nan nan nan nan nan nan 19 18 18 18 19 18 17 15 13 11 8 6 4 3 2 360
107 78 49 39 18 5 4 4 0 358 354 351 352 356 358 1 3 6 9 4 359 1 356 357 nan nan nan 3 4 8 17 5 nan nan nan nan nan nan nan nan nan nan nan nan nan nan nan nan nan nan nan nan nan nan nan nan nan nan nan nan nan nan nan nan nan nan nan nan nan nan nan 22 22 22 22 20 19 17 15 12 9 7 5 1 359
112 78 31 18 6 354 347 346 345 342 345 341 340 341 342 350 354 359 4 0 1 356 353 351 350 nan nan nan 352 358 2 351 1 1 358 6 nan nan nan nan nan nan nan nan nan nan nan nan nan nan nan nan nan nan nan nan nan 14 nan 10 nan nan nan nan nan nan nan nan nan nan nan nan nan 20 nan nan nan 15 14 11 8 5 2 0 358
124 16 347 350 341 338 333 333 329 334 332 333 331 330 330 334 339 346 349 354 358 358 353 344 343 331 338 nan nan nan 351 352 350 351 353 347 2 nan nan nan nan nan nan nan nan nan nan nan nan nan nan nan nan nan nan nan 15 14 8 6 nan nan nan nan nan nan nan nan nan nan nan nan nan nan nan nan nan nan nan 5 3 1 360 359 358
233 322 321 327 327 327 325 325 324 324 323 325 323 323 321 324 325 331 336 341 351 358 353 343 332 331 333 342 nan nan nan 342 348 349 352 355 356 3 6 nan nan nan nan nan nan nan nan nan nan nan nan nan nan nan nan 11 10 12 1 1 nan nan nan nan nan nan nan nan nan nan nan nan nan nan nan nan nan nan nan nan nan 358 358 358 357
277 308 315 320 320 322 322 320 322 321 321 322 317 314 314 317 317 322 322 329 342 350 348 347 337 330 338 341 344 nan nan 339 348 351 353 358 356 2 5 5 nan nan nan nan nan nan nan 7 10 14 7 nan 5 9 10 6 359 357 356 355 nan nan nan nan nan nan nan nan nan nan nan nan nan nan nan nan nan nan 354 357 nan nan nan nan nan
276 299 309 308 310 316 317 319 320 321 320 321 317 312 314 314 316 311 316 323 332 341 342 348 345 337 333 343 348 345 336 345 346 352 354 355 354 359 5 6 nan nan nan nan nan nan nan nan 8 4 358 350 3 353 360 358 359 349 353 354 352 nan nan nan nan 358 6 nan nan nan nan nan nan nan nan nan nan nan nan nan nan nan nan nan nan
262 282 295 304 309 314 317 318 320 320 321 320 317 316 317 319 320 318 318 323 329 335 340 349 350 340 332 340 351 346 337 347 353 356 352 354 352 357 4 3 8 9 nan nan nan nan nan nan nan 360 356 349 355 356 355 353 351 348 352 354 353 351 351 350 350 350 355 358 nan nan nan nan nan nan nan nan nan nan nan nan nan nan nan nan nan
279 284 296 309 309 316 322 321 322 322 322 320 318 320 325 326 326 327 326 327 330 334 338 343 347 344 343 338 348 348 347 352 357 355 353 352 353 356 360 1 1 2 359 358 1 nan nan nan nan 354 348 344 349 345 342 344 343 343 346 347 344 346 345 343 343 343 345 nan nan nan nan nan nan nan nan nan nan nan nan nan nan nan nan nan nan
299 297 303 308 317 321 325 328 326 324 325 323 321 322 324 328 335 333 331 329 330 333 334 337 342 348 345 343 346 345 348 354 354 353 353 355 355 353 357 355 353 352 346 348 352 348 349 355 nan nan 337 338 335 335 333 337 338 336 333 338 339 339 339 339 337 338 342 nan nan nan nan nan nan nan 351 352 nan nan nan nan nan nan nan nan nan
310 315 320 314 321 330 331 334 333 330 325 322 323 325 328 330 333 335 331 329 329 329 329 334 341 346 348 347 344 342 348 353 356 352 351 356 355 355 356 350 345 338 340 340 338 341 343 349 343 nan nan 338 335 333 330 333 336 335 332 332 329 330 331 334 335 333 333 334 334 nan nan 346 349 nan 350 nan nan nan nan nan nan nan nan nan nan
330 328 327 327 321 327 334 334 337 336 332 327 325 325 325 326 330 333 333 332 330 327 329 336 342 346 349 347 343 341 348 353 353 350 348 350 352 358 355 349 337 331 335 334 334 336 337 339 338 337 nan nan 334 337 329 327 332 331 331 330 333 331 328 333 335 332 332 334 337 342 341 340 342 342 345 nan nan nan nan nan nan nan nan nan nan
346 342 338 339 330 323 330 332 337 333 329 327 327 327 325 326 328 332 336 335 338 334 332 337 343 348 352 351 346 343 347 348 348 349 345 349 347 350 347 337 333 332 334 332 330 333 332 333 336 334 329 332 326 323 317 319 325 324 325 328 335 331 330 330 332 332 331 332 333 334 336 337 338 340 340 nan nan nan nan nan nan nan nan nan nan
346 349 342 338 332 328 327 329 332 328 327 330 327 330 330 333 332 340 344 345 344 346 347 349 350 355 359 359 357 353 353 357 359 356 353 348 343 347 342 335 337 336 335 333 334 332 331 333 335 327 328 329 327 321 322 323 326 330 321 320 327 325 324 326 329 327 327 329 331 331 331 330 nan nan nan nan nan nan nan nan nan nan nan nan nan
353 346 341 335 331 331 332 334 331 325 328 327 344 356 350 339 342 344 345 352 358 4 15 22 18 6 10 9 11 16 9 5 2 2 2 359 359 353 345 338 341 339 341 344 343 337 336 339 340 335 336 339 332 326 327 328 322 316 315 318 326 324 nan 321 322 323 324 324 327 332 330 324 326 328 326 nan nan nan nan nan nan nan nan nan nan
353 346 341 342 334 328 335 336 338 332 332 338 2 358 5 8 357 356 2 7 10 27 39 41 38 27 18 16 15 13 10 6 5 9 7 8 6 5 3 352 345 341 341 344 345 338 336 340 339 332 335 340 333 325 326 324 316 319 321 318 321 317 318 320 326 319 319 322 326 328 328 321 321 325 325 327 328 nan nan nan nan nan nan nan nan
332 332 348 349 336 330 329 335 340 341 341 1 7 6 9 14 11 9 15 21 15 24 32 35 36 32 30 23 16 9 3 4 4 4 7 9 6 2 360 356 350 349 346 341 338 332 332 334 335 334 332 330 326 321 321 316 317 316 319 317 318 318 317 319 322 326 317 318 322 324 327 318 319 322 324 326 325 nan nan nan nan nan nan nan nan
294 324 353 345 341 335 333 333 343 354 357 10 11 9 10 13 15 17 21 23 27 29 27 30 33 29 26 25 22 9 5 9 1 355 347 349 354 358 355 353 352 348 346 349 345 335 327 330 331 334 332 325 321 323 319 316 311 314 315 317 319 317 318 320 324 324 317 317 317 319 324 320 315 319 325 324 321 323 326 331 nan 338 nan nan nan
299 316 321 349 344 339 338 339 352 5 14 16 8 9 8 12 13 8 28 23 24 29 25 23 18 17 15 10 6 2 353 344 338 338 335 334 328 326 329 330 331 339 341 347 347 343 334 327 326 332 332 318 321 323 315 307 309 317 316 319 319 319 319 324 328 326 312 312 317 314 317 318 313 316 323 319 316 319 321 325 333 336 nan nan nan
293 294 303 347 5 347 345 353 10 22 35 24 2 7 8 9 13 1 23 24 20 14 16 11 6 4 0 355 353 351 342 335 327 325 322 320 317 316 319 323 326 325 325 333 333 325 323 324 325 328 328 319 319 320 311 307 315 317 317 319 318 319 320 315 307 308 309 313 311 309 319 314 308 314 318 313 312 317 317 321 329 333 nan nan nan
253 255 249 222 51 352 338 353 21 64 71 23 4 2 3 7 2 344 4 18 16 11 4 355 352 350 344 340 337 335 333 330 326 326 321 312 310 316 318 318 316 316 324 335 332 324 323 322 321 324 322 320 319 317 314 311 310 311 308 306 304 305 305 308 314 310 313 309 310 310 311 310 307 311 311 308 308 314 315 316 324 331 nan nan nan
251 262 267 247 204 278 345 342 19 70 102 16 352 354 352 355 332 336 341 347 358 3 359 342 335 332 327 327 326 322 324 322 320 320 320 313 311 315 315 315 312 314 327 324 317 320 324 326 325 326 328 325 321 319 317 319 314 308 302 303 311 305 304 308 309 308 310 303 306 308 307 308 304 305 305 304 308 312 314 315 nan nan nan nan nan
226 221 216 209 204 190 94 18 358 64 103 320 328 337 342 342 338 334 325 328 346 344 338 330 320 319 324 337 331 325 327 323 321 323 321 313 313 318 316 315 315 323 331 313 296 304 317 319 320 323 322 320 317 314 311 312 314 308 304 311 310 302 305 306 307 306 301 301 307 304 301 306 298 299 300 297 300 305 310 310 nan nan nan nan nan
208 207 208 203 194 190 183 181 134 64 177 265 313 330 338 337 334 324 321 325 333 329 318 320 317 315 315 317 330 331 328 326 326 323 324 317 317 319 317 315 322 330 330 302 303 305 299 298 302 305 307 314 310 308 311 318 315 312 310 312 305 302 305 305 304 298 297 301 301 301 301 298 295 296 296 293 299 300 303 306 nan nan nan nan nan